Find Starlink 3847

NORAD ID: 52333 Int'l Des: 2022-045 Owner: SPXS Country: US Constellation: starlink operational
LEOCIRCULAR

Live Position

Loading 3D Globe...

About Starlink 3847

Description loading...

Upcoming Passes

Passes for default location (London). Set your location on the main map for personalized predictions.

Altitude History

Loading altitude history...

Two-Line Element Set

1 52333U 22045C 26118.99734353 .00000139 00000-0 26800-4 0 9993
2 52333 53.2172 343.2802 0001478 79.4883 280.6275 15.08838982223222
Epoch: Apr 28, 2026 • Age: 16 hours

Current Status

Altitude 542.0 km
Velocity 7.60 km/s
Sub-Earth Point 37.66°N, 83.12°W
Launch Date Apr 29, 2022
Age 3.9 years
Type internet

Technical Details

Classification Payload
Mass 297.00 kg
Dry Mass 275.00 kg
Total Mass 297.00 kg
Length 0.20 m
Diameter 2.80 m
Span 9.00 m
Shape Box + pan
Manufacturer SPXS
Bus Type Starlink
Phase Status In Orbit
Owner/State SPXS/US

Most Searched